Orbcomm D7

operational
NORAD ID: 25985 Int'l Des: 1999-065 Owner: ORBC Country: US Constellation: orbcomm
LEOCIRCULAR

关于 Orbcomm D7

正在加载描述...

实时位置

正在加载3D地球...

即将过境

高度历史

Altitude vs Time

uPlot chart will show altitude changes over time

两行轨道根数

1 25985U 99065F 26062.62248638 .00001293 00000-0 47139-3 0 9995
2 25985 45.0400 307.8224 0003439 269.6007 90.4447 14.37857198372114
Epoch: Mar 3, 2026 • Age: 30 hours

当前状态

高度 777.5 km
速度 7.47 km/s
星下点 -45.06°S, 24.75°W
发射日期 Dec 4, 1999
运行时间 26.2 years
类型 other

技术详情

分类 Payload
质量 44.00 kg
干质量 44.00 kg
总质量 44.00 kg
长度 0.20 m
直径 1.00 m
跨度 4.30 m
形状 Cyl + 2 Pan + Ant
制造商 OSCG
平台类型 Microstar
阶段状态 In Orbit
所有者/国家 ORBC/US

大型星座

Loading constellations...